Flag for Niger Weather past 2 weeks in Niamey, Niger

Now
82 °F

Clear.


Feels Like: 89 °F
Forecast: 80 / 94 °F
Wind: 3 mph from Northwest

Location: Niamey-Aero

Current Time: Sep 5, 2015 at 1:23:16 AM

Latest Report: Sep 5, 2015 at 12:00 AM


Visibility: 10 mi

Pressure: 29.95 "Hg

Humidity: 79%

Dew point: 75 °F

Location of NiameyLocation

Historic Weather in Niamey — Graph

°F

Niamey temperature yesterday

Maximum temperature yesterday: 90 °F (at 4:00 PM)
Minimum temperature yesterday: 75 °F (at 12:00 AM)
Average temperature yesterday: 81 °F

Past Weeks' High & Low Weather Summary

 TemperatureHumidityPressure
High99 °F (Aug 24, 2:00 PM)100% (Aug 26, 11:00 AM)30.04 "Hg (Aug 26, 11:00 AM)
Low72 °F (Aug 29, 2:00 AM)30% (Aug 23, 4:00 PM)29.77 "Hg (Aug 23, 5:00 PM)
Average83 °F72%29.90 "Hg
* Reported Midnight between Aug 20 and Aug 21 — Midnight between Sep 4 and Sep 5, Niamey, Weather by CustomWeather, © 2015

Note: Actual official high and low records may vary slightly from our data, if they occured in-between our weather recording intervals... More about our weather records

Advertising

Niamey weather history for previous 24 hours

 ConditionsComfort  
Time TempWeatherWind HumidityBarometerVisibility
12:00 AM
Sat, Sep 5
82 °FClear.3 mph79%29.95 "Hg10 mi
11:00 PM
Fri, Sep 4
82 °FClear.2 mph79%29.95 "Hg10 mi
10:00 PM84 °FClear.2 mph79%29.95 "Hg10 mi
9:00 PM84 °FClear.2 mph74%29.89 "Hg10 mi
8:00 PM86 °FPassing clouds.No wind66%29.89 "HgN/A
7:00 PM86 °FPassing clouds.1 mph62%29.89 "HgN/A
6:00 PM90 °FScattered clouds.3 mph55%29.86 "HgN/A
4:00 PM90 °FScattered clouds.7 mph59%29.89 "HgN/A
3:00 PM88 °FScattered clouds.7 mph59%29.89 "HgN/A
2:00 PM86 °FPartly sunny.7 mph66%29.92 "HgN/A
1:00 PM86 °FPartly sunny.7 mph66%29.95 "HgN/A
12:00 PM84 °FPartly sunny.8 mph70%29.98 "HgN/A
11:00 AM81 °FPartly sunny.8 mph79%30.01 "HgN/A
10:00 AM81 °FScattered clouds.8 mph79%30.01 "HgN/A
9:00 AM77 °FScattered clouds.7 mph89%30.01 "HgN/A
8:00 AM75 °FBroken clouds.9 mph100%29.98 "HgN/A
7:00 AM75 °FPassing clouds.5 mph100%29.95 "HgN/A
6:00 AM75 °FPassing clouds.3 mph100%29.95 "HgN/A
5:00 AM75 °FPassing clouds.5 mph94%29.95 "HgN/A
4:00 AM75 °FPassing clouds.8 mph100%29.92 "HgN/A
3:00 AM75 °FPassing clouds.8 mph94%29.92 "HgN/A
2:00 AM75 °FPassing clouds.5 mph100%29.92 "HgN/A
1:00 AM75 °FPassing clouds.5 mph100%29.95 "HgN/A
Weather by CustomWeather, © 2015

See weather overviewHow to use our weather pages